User: anonymous   Login
Location: Bangkok
(13.7500°N, 100.5170°E)
Time: 14:18:57
(UTC+07:00)
Language:

SPOT 1/Viking Rocket - Orbit

View from above orbital plane
View from above orbital plane
View from above satellite
View from above satellite

Ground track
Ground track

The orbit data is extracted from the following two-line orbital elements,

1 16615U 86019C   14331.85371693  .00000281  00000-0  12317-3 0  5485
2 16615 098.7376 024.1471 0010894 263.5065 203.0507 14.31358716506107
Epoch (UTC): 27 November 2014 20:29:21
Eccentricity: 0.0010894
inclination: 98.7376°
perigee height: 779 km
apogee height: 795 km
right ascension of ascending node: 24.1471°
argument of perigee: 263.5065°
revolutions per day: 14.31358716
mean anomaly at epoch: 203.0507°
orbit number at epoch: 50610

The dashed part of the orbit path shows where the satellite is in the earth's shadow,  

DLR